This is the latest recevied weather packets stored in our database for station/object 4S6DRJ-13. If no packets are shown the sender has not sent any weather packets the latest 10 day(s).
| Time | Temp. | Humidity | Pressure | Rain* | Wind** | Luminosity | Snow |
|---|---|---|---|---|---|---|---|
| 1787660954 | 28.33° C | 83% | 1009.4 hPa | 0 mm | 1.79 m/s, 242° | 12 W/m² | - |
| 1787660894 | 28.33° C | 83% | 1009.6 hPa | 0 mm | 1.34 m/s, 230° | 13 W/m² | - |
| 1787660831 | 28.33° C | 83% | 1009.3 hPa | 0 mm | 2.24 m/s, 227° | 13 W/m² | - |
| 1787660770 | 28.33° C | 83% | 1009.5 hPa | 0 mm | 0.89 m/s, 191° | 14 W/m² | - |
| 1787660710 | 27.78° C | 83% | 1009.4 hPa | 0 mm | 0.45 m/s, 149° | 15 W/m² | - |
| 1787660649 | 27.78° C | 83% | 1009.6 hPa | 0 mm | 0 m/s | 16 W/m² | - |
| 1787660588 | 27.78° C | 83% | 1009.6 hPa | 0 mm | 0.89 m/s, 339° | 17 W/m² | - |
| 1787660527 | 27.78° C | 83% | 1009.4 hPa | 0 mm | 1.79 m/s, 157° | 18 W/m² | - |
| 1787660466 | 27.78° C | 83% | 1009.5 hPa | 0 mm | 2.68 m/s, 221° | 19 W/m² | - |
| 1787660405 | 27.78° C | 83% | 1009.3 hPa | 0 mm | 1.34 m/s, 174° | 20 W/m² | - |
| 1787660344 | 27.78° C | 83% | 1009.3 hPa | 0 mm | 1.34 m/s, 206° | 21 W/m² | - |
| 1787660284 | 27.78° C | 84% | 1009.2 hPa | 0 mm | 0.89 m/s, 317° | 21 W/m² | - |
| 1787660222 | 27.78° C | 84% | 1009.4 hPa | 0 mm | 0 m/s | 22 W/m² | - |
| 1787660161 | 27.78° C | 84% | 1009.2 hPa | 0 mm | 0.45 m/s, 30° | 22 W/m² | - |
| 1787660100 | 27.78° C | 84% | 1009.3 hPa | 0 mm | 1.34 m/s, 299° | 22 W/m² | - |
| 1787660039 | 27.78° C | 84% | 1009.3 hPa | 0 mm | 1.34 m/s, 211° | 22 W/m² | - |
| 1787659978 | 27.78° C | 84% | 1009.4 hPa | 0 mm | 0.45 m/s, 215° | 21 W/m² | - |
| 1787659917 | 27.78° C | 84% | 1009.2 hPa | 0 mm | 0.89 m/s, 275° | 21 W/m² | - |
| 1787659856 | 28.33° C | 84% | 1009.2 hPa | 0 mm | 0.45 m/s, 170° | 23 W/m² | - |
| 1787659795 | 28.33° C | 84% | 1009.1 hPa | 0 mm | 0.89 m/s, 224° | 24 W/m² | - |
| 1787659734 | 28.33° C | 84% | 1009.4 hPa | 0 mm | 1.79 m/s, 310° | 24 W/m² | - |
| 1787659673 | 28.33° C | 84% | 1009.2 hPa | 0 mm | 1.34 m/s, 247° | 23 W/m² | - |
| 1787659612 | 28.33° C | 83% | 1009.2 hPa | 0 mm | 1.34 m/s, 230° | 24 W/m² | - |
| 1787659551 | 28.33° C | 83% | 1009.2 hPa | 0 mm | 2.68 m/s, 283° | 26 W/m² | - |
| 1787659490 | 28.33° C | 83% | 1009.3 hPa | 0 mm | 1.34 m/s, 334° | 27 W/m² | - |
* Rain latest hour (hover to see other rain measurements)
** Current wind speed in m/s (hover to see current wind gust speed)